KA1SNA Weather Reports


Display with metric or nautical units.
time (UTC)temp
F
wind
direction
speed
MPH
gust
MPH
rain 1hr
in
rain 24hr
in
rain mn
in
humidity
%
barometer
mb
20260510204548 89 340 6.0 6.0 0.00 0.03 0.03 64 1016.5
20260510203036 89 348 3.0 7.0 0.00 0.03 0.03 63 1016.3
20260510201536 90 325 3.0 8.0 0.00 0.03 0.03 61 1016.3
20260510200034 90 323 5.0 7.0 0.00 0.03 0.03 60 1016.4
20260510194537 91 22 3.0 5.0 0.00 0.03 0.03 61 1016.4
20260510193036 91 264 6.0 15.0 0.00 0.03 0.03 61 1016.4
20260510191539 90 323 5.0 5.0 0.00 0.03 0.03 65 1016.4
20260510190043 90 325 3.0 14.0 0.00 0.03 0.03 64 1016.6
20260510184541 92 292 10.0 14.0 0.00 0.03 0.03 62 1016.6
20260510183035 91 274 6.0 16.0 0.00 0.03 0.03 63 1016.5
20260510181601 91 311 5.0 14.0 0.00 0.03 0.03 62 1016.6
20260510180041 90 0 3.0 15.0 0.00 0.03 0.03 64 1016.8
20260510174552 91 296 3.0 13.0 0.00 0.03 0.03 63 1016.8
20260510173035 90 269 5.0 15.0 0.00 0.03 0.03 64 1017.1
20260510171535 91 255 3.0 11.0 0.00 0.03 0.03 65 1017.4
20260510170036 90 306 2.0 13.0 0.00 0.03 0.03 65 1017.7
20260510164542 90 22 2.0 13.0 0.00 0.03 0.03 65 1017.7
20260510163037 89 263 3.0 6.0 0.00 0.03 0.03 67 1017.8
20260510161536 89 280 3.0 12.0 0.00 0.03 0.03 68 1017.9
20260510160038 88 277 5.0 11.0 0.00 0.03 0.03 66 1018.0
20260510154535 88 269 4.0 11.0 0.00 0.03 0.03 67 1018.0
20260510153040 86 216 2.0 11.0 0.00 0.03 0.03 70 1017.8
20260510151537 86 225 4.0 10.0 0.00 0.03 0.03 70 1018.0
20260510150036 85 235 3.0 9.0 0.00 0.03 0.03 68 1018.0
20260510144535 85 305 5.0 11.0 0.00 0.03 0.03 75 1018.1
20260510143035 84 257 3.0 10.0 0.00 0.03 0.03 76 1018.0
20260510141538 83 280 2.0 11.0 0.00 0.03 0.03 79 1017.8
20260510140035 82 217 2.0 8.0 0.00 0.03 0.03 80 1017.7
20260510134541 81 209 3.0 8.0 0.00 0.03 0.03 81 1017.8
20260510133035 80 232 2.0 8.0 0.00 0.03 0.03 83 1017.7
20260510131535 79 227 3.0 8.0 0.00 0.03 0.03 85 1017.6
20260510130034 78 236 3.0 8.0 0.00 0.03 0.03 87 1017.6
20260510124535 77 232 2.0 5.0 0.00 0.03 0.03 90 1017.5
20260510123036 76 231 2.0 5.0 0.00 0.03 0.03 91 1017.3
20260510121536 76 0 1.0 4.0 0.00 0.03 0.03 93 1017.3
20260510120036 75 232 0.0 2.0 0.00 0.03 0.03 94 1016.9
20260510114540 74 0 0.0 0.0 0.00 0.03 0.03 94 1016.6
20260510113039 74 0 0.0 1.0 0.00 0.03 0.03 94 1016.5
20260510111536 74 0 0.0 0.0 0.00 0.03 0.03 94 1016.3
20260510110036 74 0 0.0 0.0 0.00 0.03 0.03 94 1016.2
20260510104539 74 0 0.0 0.0 0.00 0.03 0.03 93 1015.9
20260510103043 74 0 0.0 0.0 0.00 0.03 0.03 93 1015.5
20260510101537 74 0 0.0 0.0 0.00 0.03 0.03 93 1015.4
20260510100048 74 0 0.0 1.0 0.00 0.03 0.03 93 1015.2
20260510094535 74 0 0.0 3.0 0.00 0.03 0.03 93 1015.1
20260510093044 75 0 0.0 2.0 0.00 0.03 0.03 92 1014.8
20260510091537 75 0 0.0 3.0 0.00 0.03 0.03 92 1014.9
20260510090038 75 0 0.0 1.0 0.00 0.03 0.03 92 1014.6
20260510084536 75 0 0.0 3.0 0.00 0.03 0.03 92 1014.6
20260510083043 75 0 0.0 3.0 0.00 0.03 0.03 92 1014.4
20260510081539 75 182 0.0 2.0 0.00 0.03 0.03 92 1014.5
20260510080038 75 0 0.0 2.0 0.00 0.03 0.03 92 1014.8
20260510074542 75 0 0.0 0.0 0.00 0.03 0.03 92 1014.6
20260510073036 76 0 0.0 1.0 0.00 0.03 0.03 91 1014.7
20260510071545 76 0 0.0 0.0 0.03 0.03 0.03 91 1015.1
20260510070035 76 0 0.0 0.0 0.03 0.03 0.03 91 1015.0
20260510064533 76 0 0.0 0.0 0.03 0.03 0.03 90 1015.2
20260510063036 76 0 0.0 1.0 0.03 0.03 0.03 89 1015.3
20260510061544 77 0 0.0 2.0 0.00 0.00 0.00 88 1015.7
20260510060036 77 0 0.0 3.0 0.00 0.00 0.00 88 1015.7
20260510054535 77 193 0.0 5.0 0.00 0.00 0.00 87 1015.9
20260510053034 77 159 0.0 5.0 0.00 0.00 0.00 87 1016.0
20260510051536 77 0 1.0 5.0 0.00 0.00 0.00 87 1016.1
20260510050037 77 0 1.0 5.0 0.00 0.00 0.00 86 1016.2
20260510044536 78 0 1.0 3.0 0.00 0.00 0.00 85 1016.1
20260510043035 78 174 1.0 4.0 0.00 0.00 0.00 83 1016.2
20260510041532 79 0 0.0 1.0 0.00 0.00 0.00 83 1016.3
20260510040037 79 0 0.0 2.0 0.00 0.00 0.00 83 1016.2
20260510034540 79 0 0.0 0.0 0.00 0.00 0.00 83 1016.1
20260510033043 79 0 0.0 3.0 0.00 0.00 0.00 82 1016.0
20260510031544 79 0 0.0 2.0 0.00 0.00 0.00 82 1015.9
20260510030033 79 0 0.0 1.0 0.00 0.00 0.00 81 1016.2
20260510024541 80 0 0.0 1.0 0.00 0.00 0.00 80 1016.2
20260510023033 80 0 0.0 1.0 0.00 0.00 0.00 79 1016.1
20260510021536 80 0 0.0 1.0 0.00 0.00 0.00 79 1016.1
20260510020035 80 0 0.0 0.0 0.00 0.00 0.00 78 1016.0
20260510014535 80 0 0.0 1.0 0.00 0.00 0.00 76 1015.7
20260510013036 81 0 0.0 3.0 0.00 0.00 0.00 75 1015.3
20260510011546 81 0 1.0 3.0 0.00 0.00 0.00 73 1015.2
20260510010036 82 0 0.0 3.0 0.00 0.00 0.00 71 1015.1
20260510004537 82 5 0.0 2.0 0.00 0.00 0.00 70 1014.9
20260510003058 83 0.0 0.0 0.00 0.00 0.00 68 1014.6
20260510001539 83 0 2.0 9.0 0.00 0.00 0.00 67 1014.5
20260510000043 84 348 0.0 1.0 0.00 0.00 0.00 64 1014.4
20260509234547 85 0 2.0 5.0 0.00 0.00 0.00 60 1014.1
20260509233035 85 336 7.0 8.0 0.00 0.00 0.00 58 1014.0
20260509231545 87 29 2.0 9.0 0.00 0.00 0.00 56 1013.6
20260509230036 87 263 2.0 7.0 0.00 0.00 0.00 57 1013.5
20260509224536 88 286 3.0 7.0 0.00 0.00 0.00 55 1013.4
20260509223035 88 318 3.0 9.0 0.00 0.00 0.00 57 1013.3
20260509221531 89 333 5.0 14.0 0.00 0.00 0.00 56 1013.2
20260509220035 90 302 4.0 14.0 0.00 0.00 0.00 54 1013.0
20260509214536 90 229 4.0 14.0 0.00 0.00 0.00 54 1013.1
20260509213040 90 281 6.0 15.0 0.00 0.00 0.00 52 1013.0
20260509211538 90 292 2.0 11.0 0.00 0.00 0.00 56 1012.7
20260509210036 91 312 4.0 17.0 0.00 0.00 0.00 55 1012.5